October 1, 2022

Time Code Weather Temp. Visibility Ceiling Wind METAR/SPECI
03:00
V
8 °C 9 mi - 160° 160° 3 kt METAR CYHU 010700Z AUTO 16003KT 9SM CLR 08/06 A3016 RMK SLP217
02:00
V
7 °C 9 mi - 170° 170° 3 kt METAR CYHU 010600Z AUTO 17003KT 9SM CLR 07/06 A3018 RMK SLP223
01:00
V
8 °C 9 mi - Var 000° 0 kt METAR CYHU 010500Z AUTO 00000KT 9SM CLR 08/07 A3018 RMK SLP223
00:00
V
9 °C 9 mi - 170° 170° 3 kt METAR CYHU 010400Z AUTO 17003KT 9SM CLR 09/06 A3019 RMK SLP226

September 30, 2022

Time Code Weather Temp. Visibility Ceiling Wind METAR/SPECI
23:00
V
10 °C 9 mi - 190° 190° 5 kt METAR CYHU 010300Z AUTO 19005KT 9SM CLR 10/07 A3019 RMK SLP227
22:00
V
10 °C 9 mi - 170° 170° 4 kt METAR CYHU 010200Z AUTO 17004KT 9SM CLR 10/07 A3019 RMK SLP227
21:00
V
12 °C 9 mi - 200° 200° 6 kt METAR CYHU 010100Z AUTO 20006KT 9SM CLR 12/07 A3020 RMK SLP229
20:00
V
12 °C 9 mi - 190° 190° 5 kt METAR CYHU 010000Z AUTO 19005KT 9SM CLR 12/05 A3021 RMK SLP231
19:00
V
14 °C 9 mi - 210° 210° 5 kt METAR CYHU 302300Z AUTO 21005KT 9SM CLR 14/03 A3021 RMK SLP233
18:00
V
15 °C 9 mi - 220° 220° 6 kt METAR CYHU 302200Z AUTO 22006KT 9SM CLR 15/02 A3021 RMK SLP233
17:00
V
17 °C 9 mi - 240° 240° 8 kt METAR CYHU 302100Z AUTO 24008KT 9SM CLR 17/03 A3023 RMK SLP238
16:00
V
17 °C 9 mi - 230° 230° 8 kt METAR CYHU 302000Z AUTO 23008KT 190V250 9SM CLR 17/04 A3025 RMK SLP245 DENSITY ALT 100FT
15:00
V
17 °C 9 mi - 240° 240° 9 kt METAR CYHU 301900Z AUTO 24009KT 190V260 9SM CLR 17/04 A3026 RMK SLP251
14:00
V
16 °C 9 mi - 220° 220° 10 kt METAR CYHU 301800Z AUTO 22010KT 180V250 9SM CLR 16/06 A3029 RMK SLP261
13:00
V
16 °C 9 mi - 230° 230° 8 kt METAR CYHU 301700Z AUTO 23008KT 200V270 9SM CLR 16/06 A3033 RMK SLP272
12:00
V
15 °C 9 mi - 220° 220° 5 kt METAR CYHU 301600Z AUTO 22005KT 9SM CLR 15/07 A3035 RMK SLP279
11:00
V
13 °C 9 mi - 190° 190° 4 kt METAR CYHU 301500Z AUTO 19004KT 140V270 9SM CLR 13/08 A3037 RMK SLP286
10:00
V
11 °C 9 mi - Var Var 2 kt METAR CYHU 301400Z AUTO VRB02KT 9SM CLR 11/07 A3039 RMK SLP293
09:00
V
9 °C 9 mi - Var Var 2 kt METAR CYHU 301300Z AUTO VRB02KT 9SM CLR 09/06 A3039 RMK SLP293
08:00
V
5 °C 9 mi - 150° 150° 3 kt METAR CYHU 301200Z AUTO 15003KT 9SM CLR 05/04 A3039 RMK SLP292
07:00
V
3 °C 9 mi - 090° 090° 2 kt METAR CYHU 301100Z AUTO 09002KT 9SM CLR 03/02 A3038 RMK SLP290
06:00
V
3 °C 9 mi - 090° 090° 2 kt METAR CYHU 301000Z AUTO 09002KT 9SM CLR 03/03 A3039 RMK SLP292
05:00
V
3 °C 9 mi - 140° 140° 2 kt METAR CYHU 300900Z AUTO 14002KT 9SM CLR 03/03 A3039 RMK SLP293
04:00
V
4 °C 9 mi - 130° 130° 3 kt METAR CYHU 300800Z AUTO 13003KT 9SM CLR 04/03 A3039 RMK SLP292
03:00
V
4 °C 9 mi - 120° 120° 2 kt METAR CYHU 300700Z AUTO 12002KT 9SM CLR 04/04 A3039 RMK SLP293
02:00
V
5 °C 9 mi - 110° 110° 2 kt METAR CYHU 300600Z AUTO 11002KT 9SM CLR 05/04 A3039 RMK SLP293
01:00
V
5 °C 9 mi - Var 000° 0 kt METAR CYHU 300500Z AUTO 00000KT 9SM CLR 05/04 A3039 RMK SLP295
00:00
V
7 °C 9 mi - Var 000° 0 kt METAR CYHU 300400Z AUTO 00000KT 9SM CLR 07/05 A3040 RMK SLP298

September 29, 2022

Time Code Weather Temp. Visibility Ceiling Wind METAR/SPECI
23:00
V
7 °C 9 mi - 190° 190° 3 kt METAR CYHU 300300Z AUTO 19003KT 9SM CLR 07/04 A3041 RMK SLP299
22:00
V
8 °C 9 mi - 180° 180° 4 kt METAR CYHU 300200Z AUTO 18004KT 9SM CLR 08/04 A3041 RMK SLP299
21:00
V
8 °C 9 mi - 190° 190° 4 kt METAR CYHU 300100Z AUTO 19004KT 9SM CLR 08/05 A3040 RMK SLP297
20:00
V
10 °C 9 mi - 190° 190° 3 kt METAR CYHU 300000Z AUTO 19003KT 9SM CLR 10/05 A3039 RMK SLP294
19:00
V
11 °C 9 mi - 220° 220° 5 kt METAR CYHU 292300Z AUTO 22005KT 9SM CLR 11/04 A3038 RMK SLP291
18:00
V
13 °C 9 mi - 220° 220° 5 kt METAR CYHU 292200Z AUTO 22005KT 9SM CLR 13/04 A3038 RMK SLP290
17:00
V
13 °C 9 mi - 200° 200° 5 kt METAR CYHU 292100Z AUTO 20005KT 9SM CLR 13/03 A3039 RMK SLP294
16:00
V
13 °C 9 mi - 190° 190° 8 kt METAR CYHU 292000Z AUTO 19008KT 170V240 9SM CLR 13/04 A3040 RMK SLP297
15:00
V
13 °C 9 mi - Var Var 5 kt METAR CYHU 291900Z AUTO VRB05KT 9SM CLR 13/03 A3041 RMK SLP300
14:00
V
12 °C 9 mi - 250° 250° 7 kt METAR CYHU 291800Z AUTO 25007KT 190V350 9SM FEW041 12/03 A3043 RMK SLP306
13:00
V
12 °C 9 mi 3,700 ft 250° 250° 6 kt METAR CYHU 291700Z AUTO 25006KT 200V310 9SM BKN037 12/03 A3044 RMK SLP311
12:00
V
11 °C 9 mi 3,500 ft 320° 320° 5 kt METAR CYHU 291600Z AUTO 32005KT 250V340 9SM BKN035 11/03 A3045 RMK SLP313
11:00
V
11 °C 9 mi 3,700 ft 300° 300° 6 kt METAR CYHU 291500Z AUTO 30006KT 270V010 9SM OVC037 11/03 A3045 RMK SLP315
10:00
V
10 °C 9 mi 4,100 ft 350° 350° 8 kt METAR CYHU 291400Z AUTO 35008KT 9SM OVC041 10/02 A3045 RMK SLP314
09:00
V
9 °C 9 mi 4,100 ft 330° 330° 6 kt METAR CYHU 291300Z AUTO 33006KT 290V350 9SM OVC041 09/04 A3044 RMK SLP310
08:00
V
8 °C 9 mi 4,700 ft 310° 310° 7 kt METAR CYHU 291200Z AUTO 31007KT 9SM OVC047 08/04 A3042 RMK SLP304
07:00
V
6 °C 9 mi - 320° 320° 5 kt METAR CYHU 291100Z AUTO 32005KT 9SM CLR 06/04 A3040 RMK SLP296
06:00
V
7 °C 9 mi - 320° 320° 7 kt METAR CYHU 291000Z AUTO 32007KT 9SM CLR 07/04 A3038 RMK ICE MISG SLP291
05:00
V
8 °C 9 mi - 320° 320° 7 kt METAR CYHU 290900Z AUTO 32007KT 9SM FEW046 08/04 A3036 RMK SLP283
04:00
V
10 °C 9 mi 4,400 ft 320° 320° 9 kt METAR CYHU 290800Z AUTO 32009KT 9SM OVC044 10/04 A3034 RMK SLP278
03:00
V
10 °C 9 mi 4,200 ft 340° 340° 9 - 15 kt METAR CYHU 290700Z AUTO 34009G15KT 9SM OVC042 10/04 A3034 RMK SLP276
Older data

We and third parties follow your internet behavior on our website with cookies. If you continue, we assume you agree with our cookie policy. Learn more